DW9608 Weather Reports


time (UTC)temp
C
wind
direction
speed
KPH
gust
KPH
rain 1hr
cm
rain 24hr
cm
rain mn
cm
humidity
%
barometer
mb
20260903072742 23 0.0 0.0 0.00 0.00 0.00 77 1017.6
20260903071651 23 0.0 0.0 0.00 0.00 0.00 77 1017.8
20260903070633 23 0.0 0.0 0.00 0.00 0.00 75 1018.0
20260903065622 23 0.0 0.0 0.00 0.00 0.00 73 1018.1
20260903064525 24 0.0 0.0 0.00 0.00 0.00 72 1018.2
20260903063449 25 0.0 0.0 0.00 0.00 0.00 70 1018.5
20260903062430 25 0.0 0.0 0.00 0.00 0.00 69 1018.6
20260903061352 25 0.0 0.0 0.00 0.00 0.00 68 1018.9
20260903060316 26 113 1.6 3.2 0.00 0.00 0.00 68 1018.9
20260903055251 26 266 3.2 4.8 0.00 0.00 0.00 69 1018.9
20260903054215 26 113 4.8 6.4 0.00 0.00 0.00 77 1018.0
20260903053210 25 0.0 0.0 0.00 0.00 0.00 78 1017.9
20260903052132 26 0.0 0.0 0.00 0.00 0.00 77 1017.8
20260903051115 26 0.0 0.0 0.00 0.00 0.00 77 1017.6
20260903050039 26 0.0 0.0 0.00 0.00 0.00 77 1017.4
20260903044959 26 0.0 0.0 0.00 0.00 0.00 77 1017.1
20260903043916 26 0.0 0.0 0.00 0.00 0.00 77 1017.2
20260903042858 26 0.0 0.0 0.00 0.00 0.00 77 1016.9
20260903041840 26 0.0 0.0 0.00 0.00 0.00 77 1016.8
20260903040756 26 113 0.0 1.6 0.00 0.00 0.00 77 1016.7
20260903035720 26 113 0.0 1.6 0.00 0.00 0.00 77 1016.6
20260903035246 -17 0.0 0.0 0.00 0.00 0.00 1016.6
20260903034526 26 0.0 1.6 0.00 0.00 0.00 77 1016.6
20260903033449 26 0.0 0.0 0.00 0.00 0.00 76 1016.3
20260903032450 26 1.6 3.2 0.00 0.00 0.00 76 1016.3
20260903031347 26 1.6 3.2 0.00 0.00 0.00 76 1016.5
20260903030329 26 113 0.0 1.6 0.00 0.00 0.00 76 1016.9
20260903025252 26 0.0 0.0 0.00 0.00 0.00 76 1017.1
20260903024253 26 0.0 0.0 0.00 0.00 0.00 76 1017.2
20260903023155 26 0.0 0.0 0.00 0.00 0.00 76 1017.3
20260903022119 26 0.0 0.0 0.00 0.00 0.00 76 1017.3
20260903021121 26 0.0 0.0 0.00 0.00 0.00 76 1017.3
20260903020018 26 0.0 0.0 0.00 0.00 0.00 76 1017.4
20260903014947 26 0.0 0.0 0.00 0.00 0.00 76 1017.4
20260903013928 26 0.0 0.0 0.00 0.00 0.00 76 1017.4
20260903012852 26 0.0 0.0 0.00 0.00 0.00 76 1017.4
20260903011832 26 0.0 0.0 0.00 0.00 0.00 76 1017.5
20260903010801 27 0.0 0.0 0.00 0.00 0.00 75 1017.5
20260903005727 27 0.0 0.0 0.00 0.00 0.00 74 1017.3
20260903004703 27 0.0 0.0 0.00 0.00 0.00 73 1017.3
20260903003626 28 0.0 0.0 0.00 0.00 0.00 72 1017.1
20260903002550 28 0.0 0.0 0.00 0.00 0.00 70 1017.1
20260903001552 29 0.0 0.0 0.00 0.00 0.00 68 1017.1
20260903000449 30 0.0 0.0 0.00 0.00 0.00 67 1017.0
20260902235430 30 0.0 0.0 0.00 0.00 0.00 66 1017.0
20260902234353 30 0.0 0.0 0.00 0.00 0.00 66 1017.0
20260902233349 31 113 1.6 3.2 0.00 0.00 0.00 65 1017.0
20260902232246 31 0.0 0.0 0.00 0.00 0.00 64 1017.0
20260902231228 31 0.0 1.6 0.00 0.00 0.00 62 1017.0
20260902230151 31 0.0 0.0 0.00 0.00 0.00 61 1016.9
20260902225141 32 0.0 1.6 0.00 0.00 0.00 59 1017.0
20260902224056 32 0.0 0.0 0.00 0.00 0.00 59 1016.9
20260902223020 32 113 1.6 3.2 0.00 0.00 0.00 58 1016.8
20260902222002 32 113 0.0 1.6 0.00 0.00 0.00 56 1016.8
20260902220931 33 113 3.2 6.4 0.00 0.00 0.00 55 1016.8
20260902215848 33 113 1.6 3.2 0.00 0.00 0.00 55 1016.8
20260902214817 33 113 1.6 3.2 0.00 0.00 0.00 55 1016.9
20260902213758 33 113 4.8 6.4 0.00 0.00 0.00 55 1016.9
20260902212742 34 113 3.2 6.4 0.00 0.00 0.00 53 1017.1
20260902211704 35 113 1.6 1.6 0.00 0.00 0.00 52 1017.2
20260902210626 35 113 1.6 3.2 0.00 0.00 0.00 52 1017.2
20260902205549 35 113 3.2 4.8 0.00 0.00 0.00 52 1017.3
20260902204530 35 113 3.2 3.2 0.00 0.00 0.00 53 1017.4
20260902203453 35 113 1.6 3.2 0.00 0.00 0.00 52 1017.5
20260902202436 35 113 3.2 6.4 0.00 0.00 0.00 51 1017.7
20260902201412 34 113 3.2 3.2 0.00 0.00 0.00 53 1017.7
20260902200348 34 158 4.8 6.4 0.00 0.00 0.00 50 1017.8
20260902195251 34 158 1.6 4.8 0.00 0.00 0.00 54 1018.0
20260902194222 35 158 3.2 6.4 0.00 0.00 0.00 53 1018.0
20260902193149 34 158 3.2 3.2 0.00 0.00 0.00 57 1018.1
20260902192131 34 158 3.2 3.2 0.00 0.00 0.00 55 1018.1
20260902191113 35 158 1.6 3.2 0.00 0.00 0.00 57 1018.2
20260902190050 34 158 1.6 3.2 0.00 0.00 0.00 56 1018.3
20260902184947 -17 158 4.8 6.4 0.00 0.00 0.00 1018.5
20260902183928 33 158 0.0 1.6 0.00 0.00 0.00 55 1018.6
20260902182851 34 158 0.0 1.6 0.00 0.00 0.00 55 1018.9
20260902181828 34 158 3.2 4.8 0.00 0.00 0.00 55 1018.9
20260902180751 33 158 4.8 9.7 0.00 0.00 0.00 56 1018.9
20260902175808 33 0.0 0.0 0.00 0.00 0.00 55 1018.9
20260902174730 33 158 1.6 3.2 0.00 0.00 0.00 57 1019.0
20260902173631 33 158 3.2 4.8 0.00 0.00 0.00 58 1019.4
20260902172554 33 158 0.0 1.6 0.00 0.00 0.00 58 1019.4
20260902171518 32 158 1.6 4.8 0.00 0.00 0.00 58 1019.6
20260902170500 32 158 1.6 1.6 0.00 0.00 0.00 62 1019.6
20260902165416 32 158 3.2 4.8 0.00 0.00 0.00 61 1019.6
20260902164357 32 158 1.6 3.2 0.00 0.00 0.00 61 1019.7
20260902163322 32 158 1.6 1.6 0.00 0.00 0.00 62 1019.8
20260902162306 32 0.0 1.6 0.00 0.00 0.00 62 1019.8
20260902161225 31 0.0 1.6 0.00 0.00 0.00 62 1019.8
20260902160148 31 158 3.2 3.2 0.00 0.00 0.00 64 1019.9
20260902155130 31 158 3.2 4.8 0.00 0.00 0.00 61 1019.9
20260902154046 31 0.0 0.0 0.00 0.00 0.00 66 1020.1
20260902153015 31 158 1.6 3.2 0.00 0.00 0.00 62 1020.1
20260902151957 31 0.0 1.6 0.00 0.00 0.00 64 1020.1
20260902150920 30 0.0 0.0 0.00 0.00 0.00 66 1020.1
20260902145901 30 158 1.6 3.2 0.00 0.00 0.00 67 1020.1
20260902144825 30 158 3.2 6.4 0.00 0.00 0.00 68 1020.1
20260902143747 30 158 0.0 1.6 0.00 0.00 0.00 66 1019.9
20260902142729 30 0.0 1.6 0.00 0.00 0.00 67 1019.9
20260902141652 30 158 1.6 3.2 0.00 0.00 0.00 66 1019.9
20260902140633 29 158 1.6 3.2 0.00 0.00 0.00 67 1019.8
20260902135556 28 158 0.0 3.2 0.00 0.00 0.00 70 1019.8
20260902134558 28 158 1.6 3.2 0.00 0.00 0.00 70 1019.8
20260902133515 28 158 1.6 3.2 0.00 0.00 0.00 72 1019.6
20260902132418 28 0.0 0.0 0.00 0.00 0.00 73 1019.6
20260902131414 28 158 0.0 1.6 0.00 0.00 0.00 73 1019.6
20260902130316 27 0.0 0.0 0.00 0.00 0.00 73 1019.6
20260902125338 27 0.0 1.6 0.00 0.00 0.00 75 1019.6
20260902124220 27 0.0 1.6 0.00 0.00 0.00 76 1019.6
20260902123201 26 0.0 0.0 0.00 0.00 0.00 78 1019.6
20260902122126 25 0.0 0.0 0.00 0.00 0.00 81 1019.6
20260902121101 25 0.0 0.0 0.00 0.00 0.00 83 1019.4
20260902120024 24 0.0 0.0 0.00 0.00 0.00 84 1019.4
20260902114948 23 0.0 0.0 0.00 0.00 0.00 90 1019.4
20260902113928 22 0.0 0.0 0.00 0.00 0.00 91 1019.1
20260902112850 22 0.0 0.0 0.00 0.00 0.00 91 1019.1
20260902111832 22 0.0 0.0 0.00 0.00 0.00 91 1018.9
20260902110748 22 0.0 0.0 0.00 0.00 0.00 91 1018.9
20260902105730 22 0.0 0.0 0.00 0.00 0.00 91 1018.9
20260902104647 22 0.0 0.0 0.00 0.00 0.00 91 1018.9
20260902103628 22 0.0 0.0 0.00 0.00 0.00 90 1018.9
20260902102551 22 0.0 0.0 0.00 0.00 0.00 90 1018.9
20260902101532 22 0.0 0.0 0.00 0.00 0.00 90 1018.9
20260902100455 22 0.0 0.0 0.00 0.00 0.00 89 1018.9
20260902095418 22 0.0 0.0 0.00 0.00 0.00 89 1018.7
20260902094354 23 0.0 0.0 0.00 0.00 0.00 89 1018.7
20260902093323 23 0.0 0.0 0.00 0.00 0.00 89 1018.9
20260902092246 23 0.0 0.0 0.00 0.00 0.00 89 1018.9
20260902091247 23 0.0 0.0 0.00 0.00 0.00 89 1019.0
20260902090149 23 0.0 0.0 0.00 0.00 0.00 89 1019.1
20260902085119 23 0.0 0.0 0.00 0.00 0.00 89 1019.1
20260902084054 23 0.0 0.0 0.00 0.00 0.00 89 1019.0
20260902083018 23 0.0 0.0 0.00 0.00 0.00 90 1019.0
20260902082001 23 0.0 0.0 0.00 0.00 0.00 90 1019.0
20260902080923 23 0.0 0.0 0.00 0.00 0.00 90 1018.9
20260902075847 23 0.0 0.0 0.00 0.00 0.00 90 1018.9
20260902074828 23 0.0 0.0 0.00 0.00 0.00 90 1018.7
20260902073752 22 0.0 0.0 0.00 0.00 0.00 89 1018.9